Orbital Elements at Epoch 2459200.5 (2020-Dec-17.0) TDB
Reference: JPL 23 (heliocentric ecliptic J2000)
Element | Value | Uncertainty (1-sigma) | Units |
e | .09700466872584775 | 3.9116e-08 | |
a | 2.617303367011975 | 1.3335e-08 | au |
q | 2.363412720939932 | 1.0108e-07 | au |
i | 2.732683375291348 | 4.2473e-06 | deg |
node | 79.372893422468 | 8.9536e-05 | deg |
peri | 270.0987519701744 | 9.2213e-05 | deg |
M | 108.8804387791943 | 2.1693e-05 | deg |
tp | 2458732.735903460528 (2019-Sep-06.23590346) | 9.2845e-05 | TDB |
period | 1546.605401689365 4.23 | 1.182e-05 3.236e-08 | d yr |
n | .2327678408511765 | 1.7789e-09 | deg/d |
Q | 2.871194013084017 | 1.4629e-08 | au |
|
| | Orbit Determination Parameters
Additional Information
|